Lid_Strength_Index
3 3 3 3 3 3 3 3 3 3 3 3 3 3 2 2 3 5 9 6 4 -1 -1 7 7 8 8 9 9 10 13 16 15 15 12 12 13 10 10 6 6 5 5 4 3
3 3 3 3 3 3 3 4 3 3 3 3 3 3 2 2 6 7 3 -0 -2 -2 7 8 10 9 10 10 10 11 14 13 11 12 11 10 12 11 9 13 8 6 5 3 3
3 3 3 3 3 3 3 4 4 3 3 3 3 3 2 3 9 6 -2 -2 -2 -2 7 8 9 10 10 11 11 13 13 11 10 10 11 10 10 9 10 11 8 6 7 4 4
3 3 3 3 3 3 3 3 3 3 3 3 4 3 2 5 13 6 -3 -1 -2 2 8 9 10 12 11 11 12 12 10 11 9 10 11 11 10 9 9 8 7 6 4 5 6
3 3 3 3 3 3 3 3 3 3 3 3 4 3 5 10 9 4 -2 -2 3 6 8 9 11 11 11 13 12 13 11 10 10 10 11 10 10 10 9 8 7 4 4 6 6
4 4 4 4 4 3 3 3 3 3 2 3 3 3 8 13 7 2 4 6 7 8 8 10 10 9 11 12 13 11 11 11 11 10 11 11 10 10 8 7 7 5 5 4 5
4 4 4 4 4 3 3 3 3 3 2 2 3 3 8 10 4 3 6 7 7 7 9 9 9 9 10 11 11 11 12 11 11 11 11 10 11 11 8 8 8 5 5 4 4
4 4 4 4 4 3 3 3 3 3 2 2 2 4 10 6 5 5 5 5 5 8 7 7 7 10 11 10 10 12 14 15 12 10 10 11 14 10 8 10 8 8 8 7 5
4 4 4 4 4 3 3 3 3 2 2 2 5 6 7 2 4 4 5 7 5 6 6 5 8 10 10 13 14 14 16 15 13 11 11 12 12 9 8 10 9 9 5 5 6
4 4 4 4 3 3 4 4 2 2 3 2 3 8 7 6 4 4 5 5 6 7 8 8 11 12 13 14 17 15 16 15 14 11 11 13 12 10 8 10 9 10 7 6 6
4 4 4 4 4 4 5 7 9 9 5 9 7 5 5 3 4 5 5 5 6 8 12 10 12 14 12 12 12 13 14 14 12 10 12 12 12 10 9 11 11 9 7 7 6
5 4 4 4 4 4 7 7 7 8 10 6 5 4 3 4 7 6 6 8 8 11 10 11 13 10 10 10 11 12 13 13 12 10 12 11 11 10 10 10 10 7 7 7 8
5 5 5 4 4 6 7 6 6 7 11 8 6 6 7 6 7 7 6 8 10 11 12 13 10 8 9 10 11 12 13 12 12 10 11 12 13 12 10 8 7 7 6 6 6
5 5 5 5 7 8 7 5 6 6 11 8 8 7 7 7 8 5 5 7 9 11 11 11 9 9 10 10 10 13 10 10 11 12 15 12 15 13 11 9 8 9 8 7 6
5 5 5 5 9 8 6 6 6 6 17 8 9 6 8 9 8 7 5 7 10 9 10 11 10 10 11 10 8 10 8 10 10 13 15 14 16 14 11 12 10 8 7 7 6
5 5 5 7 9 7 6 7 6 11 16 10 8 10 10 9 8 7 7 7 7 10 10 10 8 9 9 8 8 8 10 11 13 14 16 15 15 16 14 12 10 10 8 7 7
5 5 6 6 10 8 7 7 12 15 9 11 10 9 11 11 9 8 9 11 12 14 13 10 10 9 8 10 9 10 13 17 17 17 17 13 15 15 11 9 10 10 9 8 6
5 6 6 5 8 6 8 10 16 11 12 9 9 10 11 10 10 9 10 12 10 11 13 14 14 11 8 10 12 12 13 16 21 20 18 13 17 16 9 8 9 9 9 9 9
6 7 7 5 5 8 9 14 14 12 10 11 10 12 11 10 10 11 11 11 11 11 13 14 14 9 8 8 9 12 15 12 16 16 19 16 15 11 9 9 8 9 9 9 9
9 8 7 6 6 7 10 12 12 9 9 10 13 11 13 11 11 12 12 10 10 9 10 12 15 10 9 8 8 11 9 16 15 21 22 18 17 17 13 11 9 10 9 8 8
8 9 6 6 6 9 12 12 10 9 9 10 11 12 11 12 11 12 11 10 9 10 10 12 14 13 11 12 12 12 14 14 14 16 20 21 18 11 12 10 10 9 8 8 7
9 10 6 6 10 12 13 11 9 9 8 9 10 10 11 11 12 12 11 10 9 9 12 12 14 17 14 10 8 10 13 13 17 18 16 17 17 9 9 9 8 8 7 6 6
10 10 5 7 13 12 10 9 8 9 10 10 11 10 11 12 14 11 10 7 8 9 12 12 16 18 16 14 11 12 12 12 13 14 17 19 17 9 8 9 8 8 7 7 6
9 11 10 9 11 12 12 11 10 7 9 9 10 10 12 13 12 12 11 8 7 8 6 10 15 15 17 15 13 13 11 11 13 17 16 16 14 11 10 9 8 7 7 7 6
10 11 11 13 12 11 12 10 10 10 9 9 11 11 12 15 13 13 10 10 8 7 10 12 16 14 13 11 11 11 12 11 14 13 15 13 13 10 9 9 8 7 6 6 6
10 11 10 11 11 11 11 11 10 9 10 11 12 11 12 14 12 13 11 12 12 11 12 12 15 13 14 11 11 12 11 10 11 11 12 11 12 8 7 7 8 7 7 7 6
10 10 10 11 12 12 12 10 9 10 10 9 10 12 13 11 9 9 10 10 10 12 13 14 14 16 17 12 12 15 12 11 11 11 12 14 11 9 9 8 8 7 7 7 7